Preview of NWS' New Version of Forecast
This preview is not operational and should not be used for support decisions.

Regional Weather Roundup (RWR)

Issued by National Weather Service (NWS)

                            
000
ASUS46 KPQR 172310
RWROR 

OREGON REGIONAL WEATHER ROUNDUP
NATIONAL WEATHER SERVICE PORTLAND OR
400 PM PDT WED APR 17 2019

NOTE: "FAIR" INDICATES FEW OR NO CLOUDS BELOW 12,000 FEET WITH
NO SIGNIFICANT WEATHER AND/OR OBSTRUCTIONS TO VISIBILITY.

ORZ001>013-180000-
NORTHWEST OREGON

  
CITY           SKY/WX    TMP DP  RH WIND       PRES   REMARKS
ASTORIA        PTSUNNY   58  49  72 SW10      30.31F                  
TILLAMOOK      MOSUNNY   59  52  77 NE5       30.34F                  
NEWPORT        CLOUDY    54  50  87 W5        30.36F                  
PORTLAND       MOSUNNY   64  46  52 VRB3      30.32F                  
VANCOUVER WA   SUNNY     63  45  51 CALM      30.32F                  
SCAPPOOSE      SUNNY     64  48  56 SE6       30.32F                  
HILLSBORO      PTSUNNY   63  47  55 VRB5      30.32F                  
AURORA         MOSUNNY   64  48  56 SW6       30.33F                  
MCMINNVILLE    MOSUNNY   62  48  60 NW6       30.32F                  
SALEM          PTSUNNY   64  48  56 NW8       30.31F                  
CORVALLIS      SUNNY     64  49  57 S3        30.32F                  
EUGENE         MOSUNNY   67  49  52 CALM      30.30F                  
$$

ORZ021-028-180000-
SOUTHWEST OREGON

  
CITY           SKY/WX    TMP DP  RH WIND       PRES   REMARKS
NORTH BEND     SUNNY     59  50  72 NW7       30.32F                  
BROOKINGS      SUNNY     62  51  67 W8        30.26F                  
ROSEBURG       SUNNY     72  43  35 N5        30.27F                  
SEXTON SUMMIT  SUNNY     58  42  55 VRB3      30.31F                  
GRANTS PASS    FAIR      72  45  37 CALM      30.27F                  
MEDFORD        SUNNY     70  41  34 N3        30.25F                  
$$

ORZ014>016-041-180000-
COLUMBIA GORGE

  
CITY           SKY/WX    TMP DP  RH WIND       PRES   REMARKS
TROUTDALE      SUNNY     63  45  51 VRB5      30.32F                  
HOOD RIVER     SUNNY     63  45  51 MISG      30.28F                  
THE DALLES     SUNNY     62  42  47 NW24G32   30.25S                  
$$

ORZ029>031-041-044-049-050-061>064-502-503-505>511-180000-
EASTERN OREGON

  
CITY           SKY/WX    TMP DP  RH WIND       PRES   REMARKS
MADRAS         SUNNY     64  39  39 W3        30.28F                  
REDMOND        SUNNY     67  29  24 N8        30.26F                  
BEND           SUNNY     68  36  30 NW9       30.26F                  
PRINEVILLE     SUNNY     63  36  36 NW8       30.27F                  
KLAMATH FALLS  SUNNY     65  36  34 NW8       30.28F                  
LAKEVIEW       MOSUNNY   63  40  42 VRB6      30.29F                  
HERMISTON      SUNNY     69  41  36 W15G22    30.22F                  
PENDLETON      MOSUNNY   63  42  46 W15       30.24F                  
JOHN DAY       CLOUDY    62  40  45 SW8       30.26F                  
MEACHAM        MOSUNNY   53  38  56 VRB5      30.28F                  
LA GRANDE      SUNNY     57  40  52 E6        30.28F                  
BAKER CITY     SUNNY     59  37  44 NW5       30.28F                  
BURNS          MOSUNNY   63  38  39 W12G17    30.26F                  
ROME             N/A     65  37  35 N9        30.24S                  
ONTARIO        MOSUNNY   67  41  38 N9        30.26S                  
$$